Tracking 32136 objects as of 11-Nov-2025
HD Live streaming from Space Station
objects crossing your sky now

STARLINK-32082

Track STARLINK-32082 now!
10-day predictions
STARLINK-32082 is classified as:


NORAD ID: 60346
Int'l Code: 2024-136T
Perigee: 481.5 km
Apogee: 483.3 km
Inclination: 53.2 °
Period: 94.1 minutes
Semi major axis: 6853 km
RCS: Unknown
Launch date: August 2, 2024
Source: United States (US)
Launch site: AIR FORCE EASTERN TEST RANGE (AFETR)
Your satellite tracking list
Your tracking list is empty




NASA's NSSDC Master Catalog

Two Line Element Set (TLE):
1 60346U 24136T   25314.60079336  .00001425  00000-0  60232-4 0  9993
2 60346  53.1608 268.6687 0001323  98.9245 261.1905 15.30193872 71431
Source of the keplerian elements: AFSPC